Starlink 1228

operational
NORAD ID: 45188 Int'l Des: 2020-012 Owner: SPXS Country: US Constellation: starlink
LEOCIRCULAR

关于 Starlink 1228

正在加载描述...

实时位置

正在加载3D地球...

即将过境

高度历史

Altitude vs Time

uPlot chart will show altitude changes over time

两行轨道根数

1 45188U 20012L 25257.74500021 .05684543 12255-4 78651-3 0 9995
2 45188 53.0239 359.8770 0004384 333.7401 26.3420 16.34337011309894
Epoch: Sep 14, 2025 • Age: 41 hours

当前状态

高度 133.1 km
速度 7.83 km/s
星下点 43.57°N, 124.32°W
发射日期 Feb 17, 2020
运行时间 5.5 years
类型 internet

技术详情

分类 Payload
质量 260.00 kg
干质量 248.00 kg
总质量 260.00 kg
长度 0.20 m
直径 2.80 m
跨度 9.00 m
形状 Box + pan
制造商 SPXS
平台类型 Starlink
阶段状态 In Orbit
所有者/国家 SPXS/US

大型星座

Loading constellations...